STARLINK-1790, 46691

Orbit data source: Space-Track

STARLINK-1790, 46691 is a payload satellite owned by SpaceX/Seattle (US) in LEO that was launched on Sun, 18 Oct 2020 UTC via an FALCON 9 launch vehicle from the Air Force Eastern Test Range (AFETR). Payload-class satellites include a variety of spacecraft equipped with specific instruments for various scientific and technological missions. These include communications satellites like Starlink; space stations such as the ISS; scientific satellites like the Hubble; Earth observation satellites from companies like Planet Labs, Umbra, and HawkEye 360; GPS; miniature CubeSats for education and research; and military/defense satellites.

Loading next visibility...
Identifier
46691, 2020-073X
Orbit
LEO
Country
Flag of USUS
Related business
Manufacturer
SpaceX/Seattle
Mission
Partially operational Commercial Communications
Bus & Motor
STARLINK, Unknown motor
Mass
260 kg wet, ~248 kg dry
Launch date (UTC)
2020-10-18 (5 years ago)
Launch vehicle
FALCON 9
Launch site
Air Force Eastern Test Range (AFETR)
Object type
Payload
Rocket body
Debris
Shape & HBR
Box + 1 Pan, 10.1 m
Radar Cross Section
13.562 m², Large (>1 m²)

Expand to show TLE details & history
Last TLE update: 8 hours ago

TLE from 8 hours ago
0 STARLINK-1790
1 46691U 20073X   26105.00002315  .00214930  00000-0  75590-3 0  9991
2 46691  53.0371  16.3649 0003469 209.0171  58.2418 15.88060478  5974
Epoch: 2026-04-15T00:00Z
TLE epoch observation values (Epoch: 2026-04-15T00:00:02.000Z)
Latitude
-53.10821°
Longitude
78.70263°
Altitude
324.924 km
Speed
7.714 km/s
True Right ascension
18h 47m 31s
True Declination
-52° 55' 56"
Sunlit
Object was in daylight at epoch
Visualization orbit readout
Latitude
Unknown
Longitude
Unknown
Altitude
Unknown
Speed
Unknown
Apparent Right ascension
Unknown
Apparent Declination
Unknown
Sunlit
N/A
Visualization observer readout
Local Sidereal Time
14:27:53
Azimuth
Unknown
Elevation
Unknown
Doppler factor
Unknown
Orbital elements
Apogee altitude
310.323 km
Perigee altitude
305.685 km
Semi-major axis
6,686.141 km
Eccentricity
0.00035
Inclination
53.0371°
RAAN
16.3649°
Arg. of periapsis
209.0171°
True anomaly
58.27561°
Mean anomaly
58.2418°
Eccentric anomaly
58.2587°
Mean motion
3.9699 °/min
Orbital period
90.68 mins
BSTAR
0.0007559
Loading maneuver chart data...
Computing Atmospheric mass density...

Documentation

Showing up to 5 results
|